Terminal Aerodrome Forecast
Issued by NWS

Home | Current Version | Previous Version | Graphics & Text | Print | Product List | Glossary On
Versions: 1 2 3 4 5 6 7 8 9 10 11 12 13 14 15 16 17 18 19 20 21 22 23 24 25 26 27 28
000
FTUS43 KBIS 011640 AAA
TAFMOT
TAF AMD
KMOT 011640Z 0117/0212 04004KT 5SM BR OVC005
      TEMPO 0117/0119 SCT005 OVC012
     FM011900 02005KT P6SM SCT025 SCT040
     FM012100 36003KT P6SM VCTS BKN050CB
     FM020200 34002KT P6SM SKC=

USA.gov is the U.S. government's official web portal to all federal, state and local government web resources and services.